Regional Weather Roundup
Issued by NWS

Home | Current Version | Previous Version | Text Only | Print | Product List | Glossary On
Versions: 1 2 3 4 5 6 7 8 9 10 11 12 13 14 15 16 17 18 19 20 21 22 23 24 25 26 27 28 29 30 31 32 33 34 35 36 37 38 39 40 41 42 43 44 45 46 47 48 49 50
000
ASUS43 KLMK 280302
RWRKY
KENTUCKY REGIONAL WEATHER ROUNDUP
NATIONAL WEATHER SERVICE LOUISVILLE KY
1000 PM EST SAT DEC 27 2014

NOTE "FAIR" INDICATES FEW OR NO CLOUDS BELOW 12,000 FEET
WITH NO SIGNIFICANT WEATHER AND/OR OBSTRUCTIONS TO VISIBILITY.

KYZ001>023-026-027-061>063-070>075-280400-
WESTERN AND SOUTH CENTRAL KENTUCKY

CITY           SKY/WX    TMP DP  RH WIND       PRES   REMARKS
PADUCAH        LGT RAIN  42  40  92 NE7       30.14F
HENDERSON      CLOUDY    43  39  87 NW9       30.14F
OWENSBORO      CLOUDY    44  44 100 N12       30.13S FOG
HOPKINSVILLE   CLOUDY    48  48 100 CALM      30.11R FOG
BOWLING GREEN  CLOUDY    49  46  90 S3        30.11S
GLASGOW        NOT AVBL
$$

KYZ024-025-028>034-038-045-046-053-280400-
NORTH CENTRAL KENTUCKY

CITY           SKY/WX    TMP DP  RH WIND       PRES   REMARKS
LOUISVILLE/SDF LGT RAIN  49  47  93 SW5       30.09S FOG
LOUISVILLE/LOU LGT RAIN  48  47  96 SW5       30.10R FOG
FORT KNOX      CLOUDY    47  46  96 SW8       30.08S FOG
$$

KYZ035>037-039>044-047>052-055>060-089>105-280400-
NORTHEAST KENTUCKY

CITY           SKY/WX    TMP DP  RH WIND       PRES   REMARKS
LEXINGTON      CLOUDY    47  44  90 SW5       30.09R
COVINGTON      LGT RAIN  48  44  86 SW7       30.07R FOG
FRANKFORT      CLOUDY    47  45  93 SW5       30.08R FOG
$$

KYZ054-064>069-076>088-106>120-280400-
SOUTHEAST KENTUCKY

CITY           SKY/WX    TMP DP  RH WIND       PRES   REMARKS
JACKSON        CLOUDY    48  41  76 VRB5      30.10F
LONDON         LGT RAIN  48  41  76 S5        30.11F
SOMERSET       NOT AVBL
MIDDLESBORO    LGT RAIN  46  45  98 CALM      30.15F
MONTICELLO     CLOUDY    49  46  89 S6        30.12F
$$




USA.gov is the U.S. government's official web portal to all federal, state and local government web resources and services.